Regional Weather Roundup
Issued by NWS

Home | Current Version | Previous Version | Graphics & Text | Print | Product List | Glossary Off
Versions: 1 2 3 4 5 6 7 8 9 10 11 12 13 14 15 16 17 18 19 20 21 22 23 24 25 26 27 28 29 30 31 32 33 34 35 36 37 38 39 40 41 42 43 44 45 46 47 48 49 50

000
ASUS43 KMKX 290721
RWRWI

WISCONSIN REGIONAL WEATHER ROUNDUP
NATIONAL WEATHER SERVICE MILWAUKEE/SULLIVAN WI
200 AM CDT WED JUL 29 2015

NOTE: "FAIR" INDICATES FEW OR NO CLOUDS BELOW 12,000 FEET WITH NO
SIGNIFICANT WEATHER AND/OR OBSTRUCTIONS TO VISIBILITY.

WIZ001-002-006>008-014>016-023>028-290800-
NORTHWEST WISCONSIN

CITY           SKY/WX    TMP DP  RH WIND       PRES   REMARKS
SUPERIOR ARPT  CLEAR     66  56  68 SW9       29.77F
ASHLAND        PTCLDY    68  62  81 SW15      29.80F
HAYWARD        MOCLDY    70  56  61 SW9G18    29.87S
SIREN          PTCLDY    66  56  68 SW8       29.88S
CUMBERLAND     MOCLDY    63  55  77 W7        29.90F
RICE LAKE      MOCLDY    67  58  72 SW7       29.91S
CHETEK         MOCLDY    70  59  69 W8        29.90S
LADYSMITH      MOCLDY    70  57  64 SW5       29.91S
EAU CLAIRE     CLOUDY    69  60  73 SW7       29.90F
MENOMONIE      CLOUDY    70  60  69 W8        29.91S
NEW RICHMOND   MOCLDY    65  58  77 SW6       29.93S
OSCEOLA        PTCLDY    65  58  78 SW7       29.93F
$$

WIZ003>005-009-010-017-018-290800-
NORTH CENTRAL WISCONSIN

CITY           SKY/WX    TMP DP  RH WIND       PRES   REMARKS
MANITOWISH WTR CLOUDY    72  63  73 W14       29.86R
ARBOR VITAE    CLOUDY    77  70  81 W12G24    29.86S
WOODRUFF       CLOUDY    77  70  81 W12G24    29.86S
RHINELANDER    LGT RAIN  74  71  91 SW9       29.87F
EAGLE RIVER    LGT RAIN  72  72  99 SW7       29.85F
LAND O LAKES   LGT RAIN  72  71  95 SW5       29.85F
PHILLIPS       CLOUDY    71  58  62 SW6       29.88F
TOMAHAWK       CLOUDY    73  70  91 W5        29.89S
MEDFORD        CLOUDY    72  61  70 W10G18    29.91R
MERRILL        NOT AVBL
$$

WIZ029-030-035-036-043>047-290800-
CENTRAL WISCONSIN

CITY           SKY/WX    TMP DP  RH WIND       PRES   REMARKS
WAUSAU         CLOUDY    75  71  87 SW12      29.86F
MOSINEE        CLOUDY    72  72 100 SW8       29.89F FOG
MARSHFIELD     CLOUDY    76  67  73 NW17G25   29.89F
STEVENS POINT  CLOUDY    73  69  86 W7        29.89F
WAUPACA        CLOUDY    73  73  97 S3        29.88F
WAUTOMA        CLOUDY    74  73  96 SW3       29.89F
WISC RAPIDS    CLOUDY    75  69  81 W8        29.90F
CAMP DOUGLAS   NOT AVBL
$$

WIZ011>013-019>022-031-037>040-048>050-290800-
NORTHEAST WISCONSIN

CITY           SKY/WX    TMP DP  RH WIND       PRES   REMARKS
ANTIGO         CLOUDY    72  70  94 SW7       29.89F
SHAWANO        CLOUDY    74  69  86 CALM      29.86F
OCONTO         MOCLDY    72  72 100 SE3       29.85F
STURGEON BAY   MOCLDY    72  64  78 S8        29.89F
GREEN BAY      CLOUDY    72  68  87 CALM      29.86F FOG
MANITOWOC      MOCLDY    73  69  87 MISG      29.88F
APPLETON       CLOUDY    73  70  88 SW7       29.88F
CLINTONVILLE   CLOUDY    73  68  83 SW5       29.86F
OSHKOSH        CLOUDY    75  71  87 SW7       29.87F
$$

WIZ032>034-041-042-053>061-290800-
SOUTHWEST WISCONSIN

CITY           SKY/WX    TMP DP  RH WIND       PRES   REMARKS
LA CROSSE      CLOUDY    77  64  64 W10       29.91F
SPARTA         CLOUDY    74  69  85 SW3       29.92S
VIROQUA        CLOUDY    72  72 100 W7        29.94F
BOSCOBEL       LGT RAIN  74  72  93 SW6       29.92F
PRAIRIE DU CHI CLOUDY    75  69  81 CALM      29.93R
PLATTEVILLE    CLOUDY    73  72  95 W5        29.95R
$$

WIZ056-057-062-063-064-067-068-290800-
SOUTH CENTRAL WISCONSIN

CITY           SKY/WX    TMP DP  RH WIND       PRES   REMARKS
REEDSBURG      CLOUDY    74  71  88 W7        29.91S
BARABOO/DELLS  CLOUDY    74  67  79 SW5       29.91F
LONE ROCK      CLOUDY    75  70  84 W3        29.92S
MINERAL POINT  CLOUDY    75  72  88 SW5       29.94S
MADISON        CLOUDY    78  72  81 SW5       29.90F HX  80
MIDDLETON      CLOUDY    76  74  95 CALM      29.92S
WATERTOWN      CLOUDY    73  73 100 CALM      29.89F
MONROE         CLOUDY    73  72  94 SW8       29.94R
JANESVILLE     CLOUDY    73  72  94 CALM      29.91R
$$

WIZ051-052-058>065-066-070>072-290800-
SOUTHEAST WISCONSIN

CITY           SKY/WX    TMP DP  RH WIND       PRES   REMARKS
MILWAUKEE      CLOUDY    76  69  79 SW6       29.90F
WAUKESHA       CLOUDY    72  68  88 CALM      29.93S
MILWAUKEE/TIMM CLOUDY    72  66  83 CALM      29.91F
RACINE         CLOUDY    76  70  82 CALM      29.92F
BURLINGTON     CLOUDY    70  69  96 CALM      29.91F
KENOSHA        CLOUDY    74  70  87 CALM      29.92F
FOND DU LAC    CLOUDY    75  72  90 SW6       29.89F
SHEBOYGAN      MOCLDY    70  67  90 CALM      29.89F
WEST BEND      CLOUDY    70  68  94 CALM      29.90F FOG
JUNEAU         CLOUDY    73  71  95 CALM      29.91F
$$

LSZ147-162-290800-
LAKE SUPERIOR

STATION/POSITION TIME  TEMP    WIND        PRES    WAVE
                       AIR SEA DIR/SP/G            HT/PER
                 (UTC) (F)     (DEG/KT/KT) (MB)    (FT/S)
W MID LAKE BUOY  0650   69 62  240/ 16/ 19 1006.5F   2/ 3
DEVILS ISLAND    0700   74     230/ 21/ 25 1006.8F
PORT WING        0640   72     210/  9/ 14 1008.5F
SAXON HARBOR     0600   77                 1009.1
$$

LMZ867-665-643>646-290800-
LAKE MICHIGAN

STATION/POSITION TIME  TEMP    WIND        PRES    WAVE
                       AIR SEA DIR/SP/G            HT/PER
                 (UTC) (F)     (DEG/KT/KT) (MB)    (FT/S)
CHAMBERS ISLAND  0600   75     160/  5/  9 1011.9F
S GREEN BAY BUOY 0600   76 75  190/ 12/ 16 1013.5F
N MID LAKE BUOY  0650   72 71  180/ 10/ 12 1011.3F   1/ 3
NORTHPORT PIER   0600   74     170/  5/  9 1012.2F
SISTER BAY       0614   74     180/ 11/ 13   N/A
KEWAUNEE LAKESHO 0700   63     160/  6/  7 1011.0F
SHEBOYGAN LAKESH 0700   72     200/  4/  4 1012.0F
PORT WASHINGTON  0600   71     120/  1/  2 1013.5F
ATWATER BUOY     0700   71     180/  6/  8 1013.8F
MILWAUKEE LAKESH 0700   72     170/  3/  3   N/A
KENOSHA   LAKESH 0700   78     230/  2/  5 1012.2F
$$

TC  - TEMPERATURE IN CELSIUS
VSB - VISIBILITY IN STATUTE MILES
WCI - WIND CHILL INDEX
HX  - HEAT INDEX



USA.gov is the U.S. government's official web portal to all federal, state and local government web resources and services.